OneWeb SL0083

operational
NORAD ID: 45435 Int'l Des: 2020-020 Owner: ONEWEB Country: UK Constellation: oneweb
LEOCIRCULARPOLARONEWEB_TYPE

About OneWeb SL0083

Description loading...

Live Position

Loading 3D Globe...

Upcoming Passes

Altitude History

Altitude vs Time

uPlot chart will show altitude changes over time

Two-Line Element Set

1 45435U 20020M 25351.69855667 .00000107 00000-0 26719-3 0 9999
2 45435 87.8861 57.1916 0001720 100.1902 259.9420 13.11419571278880
Epoch: Dec 17, 2025 • Age: 18 hours

Current Status

Altitude 1221.8 km
Velocity 7.25 km/s
Sub-Earth Point 35.18°N, 162.38°E
Launch Date Mar 21, 2020
Age 5.7 years
Type internet

Technical Details

Classification Payload
Mass 148.00 kg
Dry Mass 140.00 kg
Total Mass 148.00 kg
Length 1.30 m
Diameter 1.00 m
Span 5.00 m
Shape Trapezoid+2 pan
Manufacturer ONEWUS
Bus Type ARROW
Phase Status In Orbit
Owner/State ONEWEB/UK

Large Constellations

Loading constellations...